Theta_e
282 282 282 282 281 281 281 281 282 281 281 279 278 279 283 281 279 280 282 280 281 284 286 288 289 290 290 290 290 291 290 289 289 288 288 289 290 291 291 292 292 292 292 293 293 293 294 293 293 293 293 293 293 292 292 292 292 292 292 291 291 292 292 291 293 294 294 294 293 292 291 290 290 290 290 290 289 289 288 288 289 289 289 289 288 288 288
279 281 281 282 280 280 280 280 280 281 281 280 280 281 282 282 281 283 284 284 283 285 286 288 290 291 290 290 290 290 289 289 289 288 288 288 290 291 291 292 293 293 293 293 293 293 293 293 293 293 293 293 294 294 294 294 293 293 292 291 291 291 292 292 294 294 294 293 292 292 291 290 290 290 290 289 289 288 288 288 288 288 288 288 288 288 288
281 282 279 278 280 280 279 281 282 281 281 281 281 281 281 282 281 281 282 281 280 286 289 289 290 290 290 289 288 289 290 290 289 289 289 290 291 292 292 293 293 294 294 293 293 292 293 293 294 294 294 294 294 293 293 293 293 293 292 291 291 291 292 293 293 293 293 292 292 291 291 291 291 290 290 290 289 288 288 288 288 287 287 287 287 287 287
280 279 279 280 280 280 278 278 280 281 280 278 279 278 281 280 279 281 279 278 280 286 290 290 289 288 288 288 289 290 291 291 290 289 290 290 291 292 293 293 294 294 294 294 294 294 294 295 295 295 295 295 294 293 294 294 294 294 292 291 291 291 292 292 292 292 292 292 292 291 291 291 291 291 290 289 289 289 288 288 288 287 287 287 287 287 287
279 280 278 280 279 279 281 283 285 282 281 281 281 282 282 282 284 280 278 281 288 291 290 287 289 290 290 289 290 291 291 292 292 291 291 291 291 292 293 293 293 294 294 294 295 295 295 295 295 296 296 294 294 294 294 295 294 293 292 291 291 291 291 291 291 292 292 292 291 291 292 292 291 291 290 289 289 289 288 289 288 287 287 287 287 287 287
279 277 277 277 280 281 284 285 284 283 282 281 280 282 281 282 283 284 287 288 290 290 289 288 289 290 291 293 293 293 291 291 291 291 292 292 292 292 293 293 293 294 294 294 295 295 295 295 295 295 294 293 294 294 293 293 292 291 291 291 291 291 291 291 291 291 291 291 291 291 292 292 291 291 290 289 290 290 289 289 288 287 287 287 287 287 287
278 277 278 280 277 283 285 283 285 284 285 285 284 285 286 284 284 285 285 286 287 288 290 290 291 292 293 292 290 290 291 291 290 290 291 292 292 293 293 294 294 295 295 295 295 295 295 294 295 294 294 294 294 293 293 292 291 291 291 291 291 291 290 291 291 291 291 291 291 291 291 291 291 290 290 290 290 290 289 289 288 288 288 287 287 287 287
277 277 278 275 282 286 287 283 282 283 283 283 283 282 286 286 285 284 284 286 288 290 291 291 292 292 291 289 289 289 291 291 291 291 291 292 293 294 295 295 296 296 296 296 295 295 296 296 295 294 293 294 293 293 293 292 291 291 290 290 290 290 290 291 291 291 291 291 291 291 291 291 290 290 290 290 290 290 289 289 289 288 288 289 288 288 287
275 275 275 279 282 282 285 282 283 282 284 283 284 283 287 289 287 286 285 287 288 289 290 291 291 290 289 287 289 292 292 293 294 293 293 294 295 296 297 297 296 297 297 295 295 295 294 294 293 293 294 293 293 292 291 291 291 291 290 290 290 290 290 291 291 291 291 291 291 291 291 290 290 290 290 290 290 290 289 289 288 288 287 287 287 287 287
277 276 276 277 277 277 285 286 285 285 284 287 286 285 284 291 291 289 288 287 289 289 290 290 289 288 287 287 291 294 295 295 295 295 294 294 294 294 294 295 294 294 294 294 294 293 292 292 292 293 293 292 291 291 290 291 290 290 290 290 290 291 291 291 291 292 291 291 290 290 290 290 290 290 291 291 290 290 289 289 288 288 288 287 287 287 286
275 273 273 273 272 281 286 285 286 285 284 285 285 283 282 292 291 290 289 289 290 291 291 292 289 287 285 286 290 295 295 296 295 293 294 294 293 293 293 293 293 294 294 294 294 293 292 291 292 293 292 292 291 290 290 290 291 290 290 291 291 291 291 292 292 292 292 291 291 290 290 290 290 290 290 290 290 289 289 289 289 289 288 286 286 286 286
273 272 272 275 277 280 285 285 286 285 283 285 285 280 283 292 291 290 289 289 290 291 291 290 288 287 285 287 291 295 295 295 294 293 293 294 294 294 295 294 294 293 293 292 291 291 291 292 294 293 293 292 291 290 290 291 290 290 290 291 292 292 292 292 292 292 292 291 290 290 290 290 290 290 290 289 289 289 289 289 288 288 287 286 286 285 285
275 274 275 275 278 284 286 286 285 283 284 285 279 278 288 294 292 289 290 290 292 292 291 290 288 291 292 293 294 295 294 293 293 294 294 293 293 293 293 293 292 293 293 293 292 292 292 293 293 293 292 291 290 291 291 290 290 291 292 292 292 292 292 292 292 291 291 291 290 290 290 290 290 289 289 289 289 288 288 288 287 287 285 285 285 285 285
274 275 273 276 279 286 288 286 287 285 284 279 281 292 293 295 293 290 290 291 292 291 291 291 291 292 294 294 294 293 293 293 293 293 293 293 293 294 293 292 291 292 292 292 292 292 292 293 292 292 292 290 290 290 290 290 291 293 293 293 292 292 291 291 291 291 291 291 290 290 290 289 288 288 289 289 288 288 288 287 286 286 285 285 285 285 285
271 270 271 273 277 286 285 285 284 284 283 288 294 292 291 292 292 293 292 291 292 291 290 291 292 292 292 291 292 292 292 292 292 292 292 292 292 292 293 293 293 292 291 291 291 292 293 293 293 293 291 289 290 290 290 291 292 293 293 293 292 291 291 290 290 290 290 289 289 290 289 288 288 287 288 287 287 287 286 286 286 285 284 284 285 285 285
279 272 272 278 289 288 287 289 287 285 288 296 295 292 292 294 294 293 292 292 293 293 291 290 291 291 291 291 291 291 292 292 292 292 293 293 293 293 293 293 293 292 291 291 291 292 292 293 293 292 291 290 289 289 290 292 293 293 292 292 291 290 289 288 289 289 288 288 289 289 288 288 287 286 286 286 286 286 286 286 285 285 284 284 284 284 284
280 281 282 288 287 287 288 292 295 296 293 293 293 292 292 291 292 293 291 291 293 293 292 291 291 290 291 290 291 290 291 291 291 291 292 292 292 292 292 292 292 291 291 291 291 291 292 292 293 292 292 290 288 288 291 292 292 292 291 290 289 289 288 288 288 288 288 288 288 288 288 288 286 286 286 286 285 286 285 285 285 284 284 285 284 285 285
286 287 288 290 290 289 287 289 292 292 294 295 294 292 291 292 292 293 291 292 292 292 292 290 290 290 291 290 291 291 291 291 291 292 292 292 292 293 293 292 292 291 291 291 290 290 291 291 292 292 292 291 288 289 292 292 292 291 289 288 287 287 287 287 288 287 287 287 287 287 287 287 287 287 286 286 286 286 286 285 284 284 284 285 285 285 284
283 282 290 289 289 290 291 291 291 291 291 291 292 292 292 292 292 293 293 292 292 292 292 291 290 290 290 290 290 290 290 290 291 291 291 292 292 292 292 293 291 291 289 290 290 290 290 291 292 292 291 292 291 292 291 291 290 289 288 287 287 287 287 287 287 287 286 287 287 287 287 287 287 286 286 286 285 285 286 285 284 284 284 283 283 284 284
283 284 289 290 291 291 291 291 291 291 292 292 292 291 291 292 293 293 292 292 291 291 290 290 290 290 291 290 290 290 291 291 291 291 291 291 292 292 292 292 291 289 289 289 289 289 290 291 292 292 291 291 292 291 291 290 289 288 287 287 287 287 287 287 288 288 287 284 285 286 287 287 286 286 285 285 285 285 285 285 284 284 284 283 283 284 284
285 287 288 289 289 289 290 291 292 292 292 293 293 293 293 292 290 291 291 291 291 291 290 291 290 289 290 290 290 290 290 291 291 291 292 292 292 292 291 290 289 290 289 289 289 289 290 291 291 291 290 290 291 290 290 289 288 287 287 287 287 286 287 287 287 287 287 287 287 287 287 287 287 286 286 285 285 285 286 287 286 286 286 286 285 285 285
282 283 287 290 286 288 292 292 292 292 293 293 292 292 291 291 290 291 290 290 291 291 291 290 290 289 289 290 290 290 290 291 291 291 291 291 291 291 291 291 289 288 288 287 287 287 289 290 290 289 289 290 290 290 289 288 287 287 286 287 286 287 287 287 287 287 287 287 286 286 286 286 286 286 283 285 286 286 285 285 285 285 285 286 286 286 285
284 290 292 292 293 292 293 294 295 294 293 292 291 291 292 293 293 293 291 290 291 291 292 292 290 289 289 289 290 290 290 290 291 291 291 290 291 291 291 289 288 288 288 288 287 287 288 288 288 288 288 289 289 289 289 288 287 287 286 286 287 287 287 287 287 287 287 286 286 286 286 286 286 285 285 285 284 284 285 285 285 284 284 284 285 285 284
291 293 294 294 292 290 293 294 294 294 294 292 291 292 292 292 292 292 291 291 290 291 292 292 292 291 291 291 290 289 290 290 290 290 290 291 291 290 290 289 289 288 288 288 288 288 289 289 288 288 288 288 288 288 288 287 287 286 286 286 286 287 287 287 287 287 287 287 286 286 286 286 285 285 284 284 285 284 284 284 284 284 284 283 284 284 284
289 293 294 294 293 293 294 293 293 293 293 293 292 292 292 292 292 292 291 291 292 291 291 291 292 292 291 291 291 290 290 290 290 290 289 289 289 289 289 288 288 288 289 290 290 290 289 289 288 288 288 288 288 288 288 287 287 286 286 286 286 286 287 287 287 287 287 287 286 286 285 285 284 284 284 284 283 284 284 283 283 283 283 283 283 283 283
292 292 293 293 292 292 293 292 291 292 292 293 292 292 292 290 291 291 291 291 291 292 291 291 291 292 292 291 291 291 290 290 290 289 289 289 289 289 289 289 290 290 290 290 289 289 288 288 288 287 287 288 288 288 287 287 287 286 286 286 286 287 287 287 287 288 287 287 287 286 286 286 286 285 284 284 284 284 284 283 280 280 280 281 281 281 282
292 292 291 289 288 289 291 289 290 293 294 294 293 293 293 293 290 290 291 291 291 291 291 291 291 291 291 290 289 289 289 289 289 289 289 289 289 289 290 291 290 290 289 289 288 288 287 287 287 287 287 288 288 287 287 287 286 286 286 286 287 284 283 282 286 286 287 287 287 286 286 286 285 285 284 284 283 283 283 283 283 283 282 280 280 280 280
292 292 291 288 288 290 292 292 292 292 292 292 292 292 292 292 291 290 289 290 290 290 291 290 289 289 289 290 289 289 290 289 288 289 289 289 290 291 291 290 290 289 288 288 288 288 288 287 287 287 287 288 288 288 287 287 286 286 286 286 286 287 287 286 285 285 286 286 286 286 286 286 286 285 284 283 283 283 282 282 282 282 282 282 279 278 278
291 291 291 291 291 292 293 293 293 292 292 293 293 292 291 289 289 289 289 290 291 291 290 291 291 290 290 290 290 289 289 289 289 289 290 291 291 291 291 290 289 288 287 287 287 287 287 287 287 286 287 288 288 287 287 286 286 287 287 287 287 287 287 286 286 286 287 286 286 286 285 285 285 284 284 283 282 283 282 282 281 281 281 280 276 276 276
291 292 292 292 292 292 291 290 291 291 291 292 291 291 291 289 288 289 290 290 291 290 291 291 291 290 291 290 289 289 288 288 289 290 290 291 291 290 290 288 287 287 286 286 286 287 287 286 287 287 288 288 288 287 287 287 287 286 286 286 286 286 287 286 286 287 286 286 286 283 283 283 283 283 283 283 282 282 281 280 280 280 280 280 277 277 277
292 291 290 291 291 291 290 290 291 291 291 291 291 290 290 290 289 289 289 290 290 290 290 290 290 290 290 290 290 290 290 289 289 289 289 289 289 289 288 288 287 287 288 288 288 288 287 287 287 288 289 288 288 287 287 287 287 287 287 287 286 284 284 283 284 285 286 285 285 285 284 283 283 282 281 281 281 281 281 280 280 279 279 279 277 277 277
290 290 289 289 290 289 289 290 290 290 290 291 290 289 289 289 287 288 288 288 289 289 289 288 288 289 290 290 289 289 288 288 287 287 288 288 288 288 288 287 287 286 287 287 287 287 287 287 287 288 288 288 288 287 287 287 287 287 287 283 286 287 285 283 284 285 284 283 284 283 283 283 283 282 281 280 280 280 280 279 279 279 279 278 276 276 277
287 287 287 288 288 288 288 289 289 290 290 289 290 290 290 291 290 290 290 291 290 290 289 289 289 290 289 289 288 288 287 287 287 287 287 287 287 287 287 287 287 287 287 287 287 287 287 287 288 288 288 287 287 287 286 286 286 287 287 287 287 287 282 284 283 284 283 282 282 282 282 282 282 281 281 280 279 279 279 279 279 278 278 277 277 277 275
289 289 291 293 292 291 290 291 292 291 291 291 291 290 290 290 289 290 289 288 288 288 288 289 290 289 288 287 287 287 286 286 287 288 288 287 287 287 287 287 287 287 287 287 287 288 289 288 288 288 287 287 287 287 286 286 285 286 285 286 286 286 285 285 283 282 282 281 281 279 280 279 280 280 279 279 279 278 278 277 277 277 277 276 275 274 273
292 293 293 293 294 294 293 293 292 292 292 291 291 289 289 289 288 288 288 288 288 289 290 289 288 287 287 287 286 286 286 286 287 287 287 288 287 287 287 287 286 286 286 287 287 288 288 288 287 287 287 287 286 286 286 285 285 285 285 285 284 284 285 283 284 283 282 281 281 280 279 279 278 276 277 278 277 277 277 276 276 275 275 273 269 269 270
291 291 292 292 292 291 290 290 291 290 290 290 290 290 289 289 288 288 288 288 289 289 288 288 287 287 286 286 286 286 286 287 287 287 287 287 287 288 287 286 286 286 286 287 288 288 288 288 282 281 287 287 286 286 285 284 284 284 283 284 283 283 282 282 282 281 280 280 279 278 278 276 276 276 276 275 275 275 275 274 273 273 272 270 267 268 268
292 292 292 292 293 291 290 289 289 289 289 288 288 288 288 288 288 288 289 288 288 288 288 287 287 286 286 287 287 287 287 287 288 288 288 288 288 287 286 285 285 285 286 286 288 289 288 288 282 279 281 284 284 285 283 276 282 283 282 282 282 282 282 281 281 280 279 278 277 277 275 274 275 275 273 273 273 273 272 272 270 270 268 267 267 267 266
292 292 291 292 292 290 290 290 289 288 288 288 288 288 288 288 288 288 288 288 288 288 287 287 287 287 287 287 286 286 286 287 286 287 287 287 287 286 286 286 287 288 287 288 289 289 289 285 278 280 285 285 285 285 281 275 274 279 281 281 280 280 280 280 279 278 277 277 274 275 274 274 274 273 271 272 271 270 269 269 268 267 266 265 266 265 265
290 291 290 290 289 289 289 289 289 288 288 288 288 289 289 288 288 288 287 287 288 287 287 287 287 286 286 286 286 287 286 286 286 286 286 286 286 286 287 288 289 289 290 290 289 289 288 285 284 286 286 285 283 281 277 273 271 277 278 278 278 278 278 277 277 276 275 274 273 273 273 272 272 271 270 270 269 267 266 266 266 265 265 264 264 263 263
290 290 289 289 288 289 288 288 288 288 288 288 288 288 289 289 288 288 287 287 288 287 287 287 286 286 286 286 286 287 287 287 287 286 286 286 286 286 287 287 287 287 288 283 287 288 284 279 281 284 284 281 279 279 276 273 272 274 276 276 276 276 276 276 276 275 274 273 272 269 271 270 269 268 267 266 266 265 264 264 264 264 263 263 263 262 261
290 290 290 289 289 289 288 288 288 289 289 288 288 288 288 288 288 287 287 288 288 287 287 286 286 286 286 286 287 287 288 288 287 286 286 286 286 286 287 287 289 289 288 288 288 286 279 277 280 281 280 278 277 274 275 271 272 275 275 275 275 275 275 274 274 273 272 271 270 270 269 268 266 265 265 264 263 263 263 263 262 262 262 261 260 260 259
290 290 289 289 289 288 288 288 288 288 288 288 288 288 288 288 288 288 288 288 288 288 287 287 285 287 287 287 287 287 287 287 286 286 286 286 287 288 287 289 290 290 281 280 277 277 278 277 275 274 276 275 274 270 270 272 274 275 274 274 274 273 273 272 271 271 270 270 269 269 267 267 265 264 263 263 262 262 262 261 261 260 260 260 259 259 258
289 289 288 288 289 288 288 288 288 288 288 288 289 288 288 288 288 288 287 287 287 288 287 287 286 284 285 285 285 285 286 286 286 286 286 287 287 287 288 290 289 276 271 277 278 279 278 277 275 274 269 271 272 268 268 272 274 274 273 272 271 271 270 270 270 269 269 268 268 267 266 265 264 263 263 263 262 261 261 260 260 259 259 259 258 258 257
289 288 288 288 288 288 288 288 287 287 287 288 289 289 288 287 288 287 288 288 288 287 287 287 287 286 286 286 286 286 288 288 288 288 288 288 288 287 288 289 285 271 270 276 276 276 274 272 270 268 266 267 266 267 271 272 272 272 271 270 269 269 268 268 268 268 267 267 266 266 265 263 263 263 262 261 261 260 260 259 258 257 257 256 256 256 255
288 288 288 288 288 288 288 287 287 287 288 289 288 288 288 288 287 288 287 287 287 288 287 287 287 287 288 288 288 288 289 290 289 289 288 288 288 290 275 270 273 273 271 270 272 270 269 268 266 266 266 267 267 268 271 270 270 269 269 268 267 267 266 266 265 265 265 264 264 264 263 263 262 261 261 260 259 259 258 257 256 256 256 255 255 255 255
288 288 288 287 287 288 288 288 288 288 288 287 287 287 287 287 288 288 288 287 287 288 288 288 287 287 287 288 288 287 287 288 288 288 289 290 290 283 271 270 270 268 268 268 268 267 266 265 265 266 266 266 267 268 268 267 267 267 266 266 265 264 264 264 263 263 262 262 262 262 261 261 260 260 259 259 258 257 256 256 256 255 255 254 254 254 253
288 288 288 287 288 288 288 288 288 287 287 286 286 288 289 289 288 289 289 288 288 288 288 288 287 287 287 287 288 288 289 289 290 289 284 273 268 268 267 266 266 266 266 266 265 265 265 265 265 265 265 265 265 267 266 265 265 264 264 263 263 262 261 261 260 260 259 259 259 258 258 258 257 257 257 256 256 256 255 255 254 254 254 253 253 252 252
288 288 288 288 288 288 288 287 287 287 287 287 288 289 289 290 289 289 288 288 288 288 288 288 288 287 287 287 287 288 289 289 287 284 273 271 269 268 268 268 266 265 264 264 263 263 263 264 264 264 264 264 265 264 264 263 263 262 262 261 261 260 260 260 260 259 260 259 259 258 258 257 256 256 255 255 255 254 254 254 253 253 253 252 251 251 251
288 288 288 288 288 287 287 287 287 287 288 288 288 289 289 289 288 288 288 287 287 287 288 288 287 288 286 277 277 276 272 278 285 283 269 268 268 266 264 264 264 264 264 263 262 262 262 262 262 262 262 262 262 262 262 262 261 260 260 260 260 260 259 259 259 259 258 257 257 256 256 255 255 254 253 253 253 253 252 252 252 252 252 251 251 251 250
288 288 288 288 288 288 287 288 288 288 289 289 289 289 290 289 288 289 290 289 289 288 289 289 290 289 280 275 272 271 271 269 267 266 266 265 264 265 263 263 263 263 262 262 261 261 260 260 260 260 261 261 260 260 259 259 259 258 258 258 258 257 256 256 256 256 256 255 255 254 254 253 253 252 252 252 251 251 251 251 251 250 250 250 250 249 249
288 288 288 289 289 289 288 289 289 289 290 289 289 290 289 289 289 289 290 290 289 288 288 289 288 278 274 271 269 268 266 265 265 264 264 263 263 262 262 261 261 260 260 260 259 259 259 259 259 259 258 258 258 258 258 257 257 257 256 256 256 256 255 255 254 254 254 254 253 253 253 252 252 251 251 251 250 250 250 250 250 249 249 249 248 248 248
289 289 289 289 289 288 288 288 288 289 289 289 290 289 289 289 289 289 289 283 289 289 289 288 287 273 269 268 266 265 265 264 263 263 262 261 261 260 260 259 259 258 259 258 258 257 258 257 257 257 257 256 256 256 255 255 255 255 254 254 254 254 254 253 253 253 253 252 252 252 252 251 251 251 250 250 250 250 249 249 249 248 248 248 247 247 247
Wind_Speed
11 9 11 7 8 12 13 10 8 9 12 11 13 15 10 8 8 13 2 4 6 15 17 19 18 16 13 14 17 14 12 12 11 9 10 11 11 11 10 10 9 9 9 9 10 10 9 9 9 9 7 7 6 7 7 8 6 7 5 5 6 6 6 7 8 8 7 6 5 6 6 6 7 8 8 8 8 8 8 9 8 9 9 9 9 10 10
12 13 13 9 10 10 9 12 12 13 12 16 18 17 13 15 18 18 18 18 22 20 22 21 19 15 14 15 13 12 11 11 10 9 10 11 11 10 11 11 11 10 10 10 10 10 10 10 9 9 7 7 7 7 7 6 7 7 4 6 6 7 7 8 7 7 6 6 6 6 6 8 8 8 7 7 7 8 9 9 9 8 9 9 9 10 10
6 2 4 3 7 7 12 10 11 12 12 13 15 13 13 12 16 22 22 19 19 20 19 15 13 11 11 10 12 13 12 10 9 10 10 10 11 12 11 11 11 10 10 10 10 10 10 10 10 8 8 8 7 7 8 7 7 5 4 6 7 7 9 8 7 6 6 7 6 7 8 7 7 8 8 7 7 8 8 8 9 9 8 9 10 10 11
4 3 1 4 9 11 11 17 11 10 11 10 11 12 13 11 14 8 4 9 12 15 11 6 8 9 9 11 12 11 10 10 9 9 11 12 12 12 12 11 10 10 10 10 10 10 10 10 9 8 8 8 6 9 8 8 7 4 5 6 8 8 8 8 8 8 7 7 7 8 7 9 9 8 7 7 8 8 8 8 9 8 9 10 10 9 9
6 1 4 10 12 11 4 3 5 13 12 9 4 8 7 16 12 6 7 10 11 9 3 7 12 8 9 10 11 9 10 11 9 10 11 13 13 12 11 11 11 11 10 10 10 10 9 9 9 9 8 7 9 9 8 8 6 6 7 7 8 9 9 8 9 8 8 8 8 8 9 9 8 7 7 7 8 8 10 9 7 8 10 9 10 9 9
4 6 10 8 5 3 1 0 3 8 9 12 11 9 13 15 13 11 8 10 10 10 10 11 13 11 11 8 6 5 8 10 12 13 12 11 12 12 12 11 11 11 10 9 9 10 10 11 10 9 7 8 10 9 8 8 7 8 8 9 8 9 9 9 9 9 9 9 9 10 9 8 8 8 8 9 9 8 7 6 8 8 9 10 9 9 9
4 4 7 3 1 2 4 3 5 0 1 8 14 17 10 11 16 17 16 17 16 16 13 12 15 15 14 1 6 12 11 9 11 13 14 14 12 11 11 11 11 11 11 11 11 10 10 9 8 7 8 8 8 8 7 8 7 8 8 9 9 9 10 9 8 9 10 10 10 10 9 9 9 9 9 9 9 8 8 9 8 9 9 9 9 9 9
2 1 2 5 4 3 5 2 1 2 2 2 5 11 14 15 16 17 17 18 17 16 14 13 13 15 6 3 7 12 15 13 12 12 12 13 12 11 10 10 11 10 10 11 11 11 9 6 7 6 9 9 8 10 7 8 9 8 8 9 11 9 10 10 10 10 10 10 10 10 9 9 9 10 10 10 10 8 8 8 7 7 8 8 9 9 9
2 0 1 8 11 14 2 4 4 6 4 7 2 3 11 5 12 14 15 16 15 15 15 13 12 11 11 9 8 12 12 12 12 12 14 13 12 11 10 10 12 11 11 11 11 9 9 8 8 10 10 9 9 9 9 8 9 9 8 10 10 10 11 12 11 10 10 10 10 10 9 9 10 11 10 10 10 7 7 8 8 8 8 8 7 8 8
1 3 5 3 2 2 2 2 1 2 2 3 5 3 12 12 9 14 15 15 16 13 11 10 5 5 11 13 1 7 8 9 11 9 10 11 11 11 11 11 11 12 11 11 10 8 10 10 10 9 9 9 9 9 10 9 9 10 9 10 11 11 12 12 11 10 9 10 10 10 9 10 11 10 10 9 9 7 8 8 8 9 7 7 7 8 9
0 1 2 1 3 5 3 5 6 3 3 5 2 1 7 4 5 12 15 15 12 11 9 9 4 2 9 16 11 1 3 5 5 8 9 9 9 9 9 10 12 13 12 12 11 9 9 11 12 11 10 10 9 10 10 10 10 11 10 10 11 11 12 11 10 10 9 9 10 10 10 11 10 10 10 9 7 5 7 8 9 7 6 7 6 6 8
3 1 1 4 4 7 3 6 4 5 5 4 2 5 2 4 6 7 9 11 10 9 8 6 6 6 11 14 14 11 10 5 5 6 9 10 11 11 10 9 10 13 12 12 13 11 11 12 11 11 10 9 10 11 11 10 11 11 11 11 11 11 11 12 10 9 8 9 10 10 11 11 9 10 8 6 7 7 8 7 8 7 6 6 8 7 6
3 6 4 3 7 10 7 9 6 5 5 3 1 4 5 4 5 6 8 9 9 7 8 4 9 9 12 16 16 11 8 11 11 8 9 11 11 13 13 13 12 10 11 10 13 14 11 11 11 10 9 9 11 11 11 11 13 11 11 10 11 12 11 11 10 9 9 9 11 10 10 10 8 9 8 8 7 7 8 7 7 7 7 7 8 8 7
5 4 4 4 7 11 6 0 10 9 5 2 5 5 0 3 3 6 8 9 8 6 10 9 10 13 13 14 12 12 12 13 14 13 12 11 11 10 11 12 11 10 11 12 13 13 10 9 10 9 8 10 11 11 11 14 14 10 9 10 11 10 11 11 10 9 9 10 10 9 8 8 8 9 8 7 7 8 6 7 8 9 8 6 7 8 8
2 1 1 3 5 1 8 14 8 3 3 6 2 0 4 5 4 6 7 7 9 7 10 11 14 14 13 13 14 14 13 11 14 15 13 13 13 13 11 10 9 8 10 12 13 15 11 8 9 9 9 12 12 10 13 17 11 9 10 10 10 11 11 11 9 9 9 10 9 6 7 8 9 9 8 4 6 8 8 8 9 9 8 8 8 9 9
2 4 6 7 4 4 12 13 6 10 14 8 3 0 8 10 9 8 7 9 10 7 9 12 13 12 13 13 12 13 12 11 12 12 13 12 12 12 11 11 10 8 11 11 13 13 11 9 9 9 8 11 10 13 16 13 9 10 10 10 9 10 11 9 9 9 8 8 9 8 8 6 6 7 6 5 4 6 7 8 7 7 7 7 7 8 9
8 8 10 8 2 6 14 11 11 9 12 11 11 8 9 9 10 10 7 11 11 10 10 11 12 12 10 14 13 12 14 13 13 14 14 14 14 12 12 12 11 9 10 13 12 13 12 11 9 9 8 10 11 14 15 10 10 10 10 9 9 10 10 9 9 8 7 7 7 6 5 6 6 7 6 5 7 7 7 7 8 8 8 6 7 8 7
5 15 14 7 7 8 11 12 12 13 13 10 7 9 9 9 11 7 10 11 12 11 11 12 11 12 13 12 12 12 13 13 13 12 14 14 13 12 10 10 9 10 9 10 11 12 14 12 10 10 9 8 12 14 11 11 10 10 9 10 10 11 11 10 10 10 9 9 9 8 8 6 6 6 6 6 7 7 7 7 7 8 8 7 8 8 7
4 11 6 14 18 17 14 13 15 14 13 13 9 10 11 13 11 11 10 11 11 11 10 11 13 15 15 14 15 15 14 12 13 13 14 14 13 13 13 12 9 9 6 10 13 13 15 13 9 11 9 10 10 10 10 9 8 7 8 10 11 11 12 11 10 9 9 6 5 6 7 6 6 6 6 6 7 8 8 7 7 7 8 7 7 6 7
7 18 7 7 7 10 9 7 8 11 12 11 10 12 12 13 12 11 12 11 12 8 11 11 12 14 12 12 13 11 12 12 11 11 13 14 12 12 12 12 9 8 10 9 12 12 13 13 8 10 12 12 11 11 9 7 6 7 9 10 10 11 13 10 6 8 6 10 10 7 7 6 6 5 6 7 8 9 9 8 7 8 7 7 8 6 6
11 16 22 20 13 20 22 18 15 14 13 13 15 15 14 15 13 11 11 10 12 10 13 10 11 14 14 12 13 14 12 12 11 11 11 12 12 15 15 13 9 10 9 10 13 12 14 10 9 10 11 13 11 10 9 7 6 7 10 10 10 12 12 9 9 7 6 6 7 7 7 6 7 7 6 6 9 9 10 6 7 7 6 6 5 4 4
7 12 14 7 2 8 8 10 11 11 12 11 12 11 12 12 12 10 11 13 13 11 11 10 11 13 14 12 12 15 13 13 13 12 12 13 15 16 14 11 10 11 11 11 13 13 14 11 10 10 11 12 11 9 7 6 5 8 10 10 9 11 10 8 6 6 6 6 5 7 8 8 7 8 11 14 11 9 9 11 12 13 11 9 7 5 6
10 17 13 8 12 14 14 14 10 8 9 9 12 15 16 15 14 12 12 12 14 13 12 10 11 13 12 15 12 14 13 13 11 12 13 13 12 13 14 12 13 11 12 11 11 13 13 9 9 10 11 12 12 10 7 6 6 8 9 8 6 7 8 7 9 6 6 6 6 6 7 7 7 7 6 7 15 18 16 12 10 13 16 19 18 16 10
13 22 18 7 7 12 14 8 8 11 10 11 15 16 14 15 16 15 12 13 13 15 11 12 11 12 12 12 10 14 14 12 13 13 12 12 13 14 13 12 12 13 13 13 13 14 12 8 9 10 11 12 11 10 7 6 6 8 9 7 7 7 7 9 9 9 6 6 6 7 7 6 7 6 6 7 6 11 15 17 18 16 12 14 14 14 13
18 20 10 10 12 15 12 10 10 10 15 14 14 14 14 16 15 13 13 14 13 12 13 11 11 11 13 13 11 13 13 12 11 14 15 14 14 15 15 12 13 12 13 12 13 13 12 9 10 11 11 14 11 9 6 6 6 8 9 9 10 10 8 8 8 11 9 8 7 7 7 6 5 5 7 6 7 6 6 10 11 11 12 12 11 12 13
21 21 18 16 14 15 12 13 17 17 20 19 18 15 15 14 15 12 13 12 15 13 12 14 13 13 12 13 12 11 13 14 14 13 11 13 13 13 14 13 14 10 10 11 12 12 12 11 11 11 12 14 12 8 5 6 7 9 10 10 10 8 7 7 8 8 8 7 7 7 6 7 7 6 6 7 8 7 6 3 3 5 6 10 12 13 14
15 17 15 17 20 19 14 15 16 16 12 15 13 13 13 12 10 10 10 12 14 14 13 13 13 13 13 13 13 14 13 16 14 12 10 14 15 15 13 12 11 11 9 11 11 14 13 11 10 10 13 15 11 6 5 7 8 9 9 9 7 10 14 11 7 8 8 8 7 7 7 7 7 7 8 6 5 6 6 6 6 6 5 5 9 12 9
12 11 9 13 19 21 11 13 17 16 12 14 15 15 15 12 10 13 14 16 16 15 13 14 13 11 12 11 10 13 11 12 12 10 11 12 14 13 13 12 10 7 9 10 12 13 11 9 9 11 15 14 8 6 6 7 8 9 9 8 7 7 6 7 6 6 7 8 7 7 7 7 6 6 6 5 6 6 5 6 6 6 5 2 1 2 7
16 12 11 15 20 21 20 16 15 17 18 17 15 14 13 14 15 12 14 14 13 13 12 15 10 11 11 10 8 11 11 10 12 15 12 11 13 13 13 9 6 6 8 10 12 12 10 9 10 12 15 11 5 7 6 6 7 7 7 6 6 6 4 4 5 6 6 6 6 6 7 7 6 5 7 8 4 6 4 6 7 6 6 3 1 3 4
19 15 15 17 19 20 20 21 20 17 15 14 14 14 12 12 13 13 12 15 15 12 14 13 11 12 10 11 12 11 12 14 14 12 13 12 13 14 11 7 4 6 7 10 13 12 10 10 10 12 14 7 4 6 6 6 7 8 8 8 7 6 6 6 7 8 8 7 8 9 8 8 6 6 6 6 6 7 5 6 6 6 6 5 5 5 5
10 10 12 15 17 17 17 22 20 17 14 14 14 14 14 13 15 15 15 15 13 13 15 12 12 13 11 12 12 11 11 12 12 11 11 13 13 13 10 5 5 8 9 11 11 9 10 11 10 12 11 5 5 6 6 6 5 6 6 5 5 10 12 12 9 7 7 7 6 6 6 6 5 4 5 5 6 5 5 5 6 6 5 5 5 6 5
17 16 14 14 15 17 17 16 17 18 16 14 11 13 16 13 13 16 14 12 13 12 11 10 11 13 13 8 6 7 8 9 10 11 12 12 13 11 7 6 9 12 13 13 12 12 11 11 12 14 6 5 5 5 5 7 5 6 6 6 5 5 6 7 5 7 7 6 7 6 4 6 6 5 6 6 6 6 5 5 6 6 6 6 6 6 4
15 18 17 19 17 15 16 18 16 18 17 12 15 14 13 12 12 14 14 14 13 11 10 13 11 10 7 7 7 8 9 9 10 11 13 13 13 11 7 7 10 12 13 12 11 11 11 12 13 10 6 6 6 6 6 7 6 6 5 4 4 6 6 6 7 7 6 6 6 7 5 5 5 4 6 5 5 5 6 6 6 6 7 5 4 3 3
20 21 23 22 13 12 15 16 11 11 13 12 11 10 11 11 12 13 12 11 10 12 13 14 13 8 5 6 8 8 7 7 10 12 12 11 11 9 6 7 9 10 12 11 9 10 10 11 9 8 8 6 6 6 6 6 6 5 4 4 5 5 5 4 4 6 6 6 5 5 6 4 6 6 4 5 7 6 5 6 4 4 7 5 2 1 2
19 23 22 22 21 17 16 15 16 16 15 15 15 9 9 11 10 12 13 10 12 16 14 9 8 7 6 7 8 9 8 11 14 14 14 12 11 10 6 6 7 9 12 13 10 12 13 11 8 8 8 7 6 5 5 6 5 5 5 5 6 6 5 4 5 6 6 6 5 5 5 6 6 5 4 6 5 4 5 5 5 5 5 3 1 2 1
17 19 20 20 20 19 16 15 16 17 17 14 13 13 12 12 12 12 14 15 12 10 10 11 8 7 8 9 10 10 11 12 13 14 14 14 13 8 4 6 8 11 14 15 13 11 10 9 12 11 6 4 4 4 4 5 5 4 5 5 5 4 4 5 4 5 5 5 5 5 5 5 5 3 4 4 4 4 4 5 4 4 3 1 2 2 2
18 20 21 20 18 16 16 14 14 15 14 14 14 13 15 15 15 15 12 11 10 10 11 9 8 10 12 12 10 10 10 10 10 12 12 10 8 7 7 6 9 11 13 11 14 6 4 6 8 8 5 3 4 4 5 6 5 3 3 4 4 5 4 4 4 4 4 4 5 5 3 3 4 5 3 4 4 4 3 4 1 1 2 2 2 3 2
18 19 20 20 19 17 16 15 12 11 12 14 15 14 15 15 15 13 12 11 10 10 9 9 11 12 11 9 9 11 11 10 11 13 13 13 10 9 9 7 8 8 8 11 6 1 3 3 5 4 4 4 5 5 4 5 5 4 4 4 4 4 3 5 4 3 3 4 3 4 4 4 4 3 2 2 3 2 1 0 1 2 3 3 3 2 2
16 14 14 16 14 15 15 15 10 9 12 16 17 16 14 13 14 13 12 13 11 8 8 11 10 9 11 10 12 12 11 10 11 13 13 13 10 7 11 9 7 10 13 10 6 6 4 5 5 5 5 6 5 4 3 3 3 3 3 3 3 4 4 3 5 3 3 3 3 4 3 3 3 2 1 1 1 1 1 1 2 2 3 3 3 3 3
17 14 15 15 14 16 15 15 15 13 13 13 13 16 17 12 11 11 12 13 12 8 9 10 9 9 10 11 12 12 12 8 9 10 12 10 8 9 11 10 10 13 14 16 12 9 8 6 5 2 2 2 2 1 0 1 1 1 3 3 3 3 3 4 5 5 3 3 2 1 1 1 1 0 1 1 2 1 2 2 3 3 4 3 3 4 4
17 15 13 12 15 14 13 13 15 16 13 11 12 14 14 13 12 10 12 15 15 7 9 10 10 11 11 12 13 14 12 9 8 10 8 6 7 8 7 11 9 6 9 9 6 2 0 2 0 1 1 1 0 1 0 2 1 2 3 3 3 3 3 3 3 4 3 3 2 3 2 3 3 2 2 2 2 2 3 3 3 3 3 4 4 4 5
18 15 13 13 13 14 14 13 12 12 14 14 13 12 13 13 12 14 15 13 12 10 8 9 12 12 12 11 11 11 11 10 9 10 9 10 9 7 6 11 6 3 1 2 1 1 2 2 1 0 1 1 0 2 2 0 1 1 2 2 1 2 2 2 2 2 1 1 2 2 2 3 3 3 3 2 3 2 3 3 4 4 4 4 4 4 4
18 16 15 15 15 14 13 12 12 15 15 16 14 11 11 10 11 11 13 13 13 13 12 11 9 11 12 11 11 12 12 10 9 10 10 11 14 13 11 13 3 3 3 1 1 1 1 1 1 1 3 1 1 2 1 0 0 1 1 0 0 1 1 1 1 1 1 1 1 2 2 2 3 3 3 3 4 4 4 4 4 4 5 5 4 4 5
16 14 14 14 15 15 12 11 12 12 12 16 16 14 10 9 10 12 13 15 14 13 13 12 10 9 10 10 9 8 8 8 5 5 5 6 5 10 16 11 1 4 2 1 1 1 2 3 2 2 3 3 2 1 0 1 0 0 0 0 0 0 0 0 1 0 0 1 1 2 2 2 3 3 4 4 4 5 5 5 4 5 4 5 5 5 5
15 15 15 15 15 11 10 11 13 16 15 14 11 10 9 10 11 13 13 13 13 14 13 12 11 10 8 8 9 10 10 7 4 3 4 7 10 4 2 4 3 2 2 3 3 3 3 3 3 3 3 2 3 2 1 1 1 1 1 1 1 1 1 1 1 2 2 3 3 3 3 4 4 4 4 5 4 5 5 5 5 5 5 5 5 5 5
15 15 14 12 12 14 15 14 13 10 9 9 10 12 12 12 13 14 12 13 13 14 13 12 10 10 10 10 9 9 8 7 6 6 7 7 8 2 3 3 2 2 4 5 3 4 3 4 4 4 4 5 4 3 2 2 2 2 3 3 3 2 3 3 3 3 4 4 4 4 5 5 5 5 5 5 5 6 6 6 6 6 6 5 5 5 5
14 12 11 13 14 14 13 10 8 8 9 8 10 12 14 14 14 11 12 13 11 12 13 12 10 11 11 11 8 4 5 6 3 2 1 4 6 5 4 6 4 4 3 3 3 3 2 3 4 6 6 6 5 3 3 4 4 4 4 4 4 4 4 4 5 5 5 5 5 6 7 6 6 7 6 7 7 7 6 6 6 6 5 5 6 6 5
13 13 13 14 15 14 12 10 8 10 12 14 14 13 13 13 13 10 8 6 10 11 11 9 9 9 11 7 6 7 6 4 7 2 3 3 3 3 2 1 3 7 8 8 8 7 8 8 7 7 6 6 4 4 4 4 4 4 5 5 5 5 5 5 5 5 5 5 6 6 6 7 7 6 7 7 7 6 6 6 6 5 5 5 5 5 5
14 14 14 12 11 13 12 11 11 11 12 12 12 12 14 15 13 10 8 9 11 10 11 12 12 11 5 1 0 1 2 0 4 2 3 2 3 3 4 5 6 5 5 5 6 5 7 9 9 8 8 6 5 5 5 5 5 5 5 5 5 5 5 5 5 5 5 6 7 7 7 7 7 6 7 6 6 6 6 6 6 5 4 4 5 5 5
11 8 9 10 11 10 11 10 10 11 12 9 11 12 11 7 7 10 10 8 8 8 8 7 5 2 3 3 2 2 2 4 6 6 6 6 6 4 4 4 5 7 7 6 6 5 6 9 9 8 6 5 5 5 6 6 6 6 6 7 6 6 6 7 8 9 7 7 8 7 7 7 7 7 6 6 6 5 5 5 5 6 8 6 4 4 4
8 9 10 10 10 10 12 13 13 12 10 11 11 10 8 7 10 11 9 6 4 5 6 6 2 2 2 2 2 2 4 4 5 5 5 5 5 5 5 4 5 5 5 6 5 4 4 5 5 6 6 7 6 6 6 6 7 7 7 7 7 6 6 8 7 7 7 7 7 7 7 6 6 6 6 6 5 5 5 5 5 4 4 4 4 4 4
10 9 9 9 9 9 9 11 13 11 9 8 8 8 8 9 8 9 9 8 7 7 7 6 6 2 2 2 3 3 3 4 4 5 5 5 5 5 6 7 6 6 6 6 5 6 5 6 7 8 8 6 6 7 8 9 7 7 7 7 7 8 8 7 7 7 7 7 7 7 7 6 6 7 6 6 6 5 5 5 5 5 4 4 3 3 2
Wind_Direction
258 269 270 262 264 252 257 256 247 211 191 181 202 221 215 160 226 253 128 152 250 272 287 290 290 290 301 303 299 293 289 286 284 285 285 286 283 286 288 285 280 275 274 270 272 274 273 277 275 272 267 264 256 250 250 258 261 260 252 246 248 238 232 235 239 239 239 233 233 232 227 231 231 227 221 216 211 208 207 216 218 223 225 225 225 226 227
273 259 251 250 246 263 260 242 236 236 208 205 212 229 217 210 240 252 273 286 283 283 279 278 280 293 295 292 293 291 281 274 275 275 273 272 277 278 280 282 279 274 267 267 267 269 272 269 270 270 268 265 260 262 266 256 254 258 238 248 247 247 240 239 240 244 245 243 239 230 225 227 229 227 224 219 213 211 213 215 218 217 220 222 224 229 230
285 98 101 185 235 243 269 250 214 218 220 228 222 233 240 237 258 261 268 275 279 274 267 268 274 281 282 285 278 274 280 275 272 277 275 272 276 279 278 274 271 269 269 268 268 267 265 264 264 265 266 268 268 268 263 260 258 252 232 256 251 248 252 249 249 249 247 244 233 233 233 231 229 226 225 219 219 221 219 215 216 214 210 218 220 224 227
284 108 351 274 259 249 251 279 263 224 194 215 223 215 219 200 226 242 244 263 257 259 262 265 255 253 267 270 277 285 287 287 279 272 274 278 279 281 280 279 277 275 273 273 268 265 265 267 268 265 267 267 263 266 264 264 267 264 246 248 253 254 255 261 260 255 248 245 240 240 235 235 230 227 222 221 224 225 225 221 217 209 213 218 221 219 222
262 118 339 313 314 300 266 249 241 184 195 209 238 240 213 209 208 218 228 239 235 262 345 302 286 260 246 252 260 269 277 275 272 267 268 274 278 274 275 276 275 273 268 266 269 271 270 266 263 263 263 276 272 268 269 271 280 273 262 257 257 256 253 251 257 257 254 250 247 243 239 238 232 226 224 225 226 224 225 223 210 210 219 217 220 218 218
283 358 325 308 304 298 88 108 152 147 180 199 224 235 206 213 189 220 221 251 286 295 281 267 270 272 266 268 281 255 259 279 288 288 279 267 262 268 272 268 264 269 273 269 260 255 260 269 266 271 272 265 269 274 278 282 274 271 269 267 257 258 256 248 247 251 253 251 249 246 243 241 236 233 228 228 228 224 225 220 216 222 225 223 221 217 216
282 341 307 286 281 275 114 189 184 223 162 198 227 253 246 203 211 238 264 266 264 257 254 261 269 269 269 288 287 284 271 246 254 264 273 278 275 263 261 268 266 257 257 263 270 270 261 254 265 271 268 250 258 271 265 272 265 262 262 265 264 260 259 255 243 241 245 246 249 250 247 243 241 238 232 236 233 226 220 223 218 219 222 222 223 220 220
279 263 43 356 266 323 320 336 69 138 147 236 247 277 251 219 211 213 236 248 254 263 267 267 267 270 288 318 264 263 267 257 243 249 251 253 256 261 256 254 263 266 262 261 262 266 270 278 273 266 268 273 279 277 276 270 275 268 265 266 268 268 265 258 248 241 239 245 248 248 246 243 243 242 235 232 234 225 221 232 228 229 236 228 232 227 223
262 162 220 243 311 318 331 126 171 181 167 176 176 296 290 195 201 201 223 243 254 260 261 258 267 300 310 268 247 234 239 244 238 234 242 246 249 254 263 268 273 274 280 278 274 275 282 278 275 273 273 277 277 279 279 272 269 270 264 266 266 263 262 262 254 247 241 242 247 249 248 246 245 244 240 237 236 222 227 230 227 224 222 218 222 226 223
202 280 301 272 284 292 190 170 27 230 326 82 82 28 288 275 217 187 207 228 241 250 260 266 286 322 303 299 134 193 223 231 246 246 252 263 271 271 272 280 282 276 270 272 271 263 275 278 272 268 271 278 280 278 274 270 268 267 261 263 264 262 262 261 257 252 246 244 248 247 247 246 246 246 245 242 240 215 223 229 229 230 221 220 220 223 222
173 187 223 279 269 257 81 181 203 174 156 147 132 194 272 274 183 187 201 220 232 242 255 272 108 285 297 292 305 32 221 255 229 258 261 258 256 261 263 266 274 280 280 282 289 290 278 275 271 270 273 275 274 271 268 266 261 264 261 261 260 256 259 262 260 258 255 252 250 250 248 248 245 249 248 243 236 218 228 232 236 237 220 222 225 218 218
232 119 190 234 217 259 196 179 176 165 147 162 231 305 329 170 207 192 193 220 235 241 242 258 278 273 287 289 298 321 325 301 273 240 266 268 267 265 257 241 243 263 278 290 285 277 270 267 270 272 271 269 266 266 265 263 264 260 256 253 256 261 265 266 266 264 259 252 252 251 251 250 249 250 252 248 242 237 234 230 236 234 225 223 229 231 214
225 206 270 315 279 257 206 193 145 134 168 169 335 250 315 182 182 181 181 220 223 228 250 211 265 241 253 279 296 313 315 299 283 248 230 245 256 267 275 278 287 280 275 270 272 274 273 275 277 272 266 265 265 262 265 269 264 258 256 259 263 265 266 266 265 262 261 255 255 251 247 249 250 257 253 249 248 242 239 235 234 237 227 227 228 237 234
221 226 226 250 277 266 141 41 140 156 150 219 234 235 289 139 200 180 198 224 228 218 241 248 245 261 269 279 292 294 288 284 287 285 279 274 265 247 249 260 265 269 275 275 274 270 255 254 258 258 254 256 258 263 267 264 261 261 264 265 263 262 261 260 260 258 257 258 251 247 247 244 248 250 248 237 242 248 244 238 234 235 234 228 228 237 238
54 59 274 300 272 273 115 121 92 281 225 241 118 231 248 177 229 231 243 223 244 223 254 238 253 265 269 275 280 281 282 281 283 285 287 284 283 287 287 280 253 248 262 267 270 273 273 263 259 254 247 255 258 258 262 262 265 268 271 267 263 261 261 261 255 250 252 252 249 235 239 234 240 247 245 231 225 233 239 239 239 240 235 234 234 240 243
182 179 190 211 219 113 174 158 176 187 223 243 226 325 290 280 282 274 269 271 266 237 231 262 264 262 274 277 266 272 271 267 271 274 275 271 270 269 267 260 265 252 260 262 268 271 269 260 256 254 242 255 253 263 263 266 268 273 273 267 265 264 268 262 260 254 252 250 244 244 247 243 233 239 235 229 226 229 227 231 240 240 242 232 232 240 242
183 208 217 232 306 176 195 214 245 238 225 245 269 277 268 287 268 263 269 268 263 259 264 259 266 278 249 263 273 274 276 275 274 276 276 281 281 278 276 275 276 265 257 266 268 275 277 269 265 261 249 255 264 261 263 266 269 271 267 270 273 274 275 274 270 265 260 253 251 250 244 236 234 235 226 209 239 236 224 228 234 237 244 234 232 238 241
257 278 262 281 266 212 220 242 258 268 271 257 250 246 266 244 251 251 254 258 264 266 264 272 271 262 271 274 271 269 271 271 270 268 275 276 272 269 262 259 262 266 261 261 267 273 279 275 273 273 262 248 262 259 264 267 269 269 274 276 275 274 276 276 273 271 268 263 258 253 252 237 229 230 228 223 230 237 229 226 223 231 239 238 238 238 243
63 274 142 217 237 251 244 229 235 243 248 255 252 260 249 259 262 264 252 255 260 258 259 251 262 270 273 273 273 273 275 266 265 266 267 269 270 278 281 277 286 271 267 271 275 277 280 280 276 281 279 265 257 264 267 267 273 272 271 271 273 274 274 275 274 270 264 261 260 251 241 239 231 231 224 227 229 235 233 227 221 227 233 233 243 244 246
203 250 234 231 242 262 262 237 256 251 244 235 228 229 240 252 261 261 266 270 270 259 263 244 254 264 261 263 269 263 262 262 267 269 269 273 276 273 275 283 281 270 268 267 272 276 271 273 277 283 283 279 276 276 273 273 270 265 265 265 267 270 271 272 265 268 259 259 258 259 249 232 238 229 222 213 226 229 221 215 216 227 227 230 234 234 239
251 278 274 262 277 277 268 258 245 243 253 260 262 259 253 252 254 252 256 247 256 255 255 263 261 268 263 252 261 265 263 263 259 261 266 270 271 281 285 284 282 269 272 272 269 273 272 271 279 281 278 279 280 277 276 274 264 259 263 264 262 267 269 268 263 258 253 248 245 250 252 243 232 226 218 210 223 239 236 225 218 229 236 241 229 217 221
248 236 251 112 188 266 254 235 239 243 247 250 252 254 255 251 254 251 258 262 257 248 246 248 252 253 265 258 253 263 261 264 267 269 270 274 278 279 277 278 275 275 267 263 270 270 273 276 278 276 277 277 277 273 272 267 250 254 261 265 263 265 267 264 257 255 250 247 232 239 245 252 251 246 233 232 234 231 252 235 232 241 240 244 242 231 235
230 247 243 177 233 256 263 280 291 262 256 242 246 257 263 268 265 265 262 267 274 267 262 245 234 249 249 262 255 260 262 261 263 268 273 279 277 276 281 285 283 275 274 270 267 268 270 274 270 267 269 272 275 274 268 263 250 251 257 260 253 252 262 255 264 256 254 255 251 243 242 243 248 255 268 227 226 236 242 251 235 227 233 241 247 247 239
255 259 266 234 223 250 273 269 266 272 263 249 255 262 265 268 271 272 267 265 270 276 268 267 252 255 258 254 256 261 261 260 268 270 263 263 269 276 275 268 273 279 279 280 278 275 277 275 272 273 272 273 271 273 266 257 248 250 251 253 259 260 259 271 271 265 259 258 259 259 257 246 244 249 252 271 264 216 226 240 242 238 221 232 239 248 254
247 256 263 257 251 266 273 275 265 265 267 266 264 265 266 271 268 262 264 268 262 261 274 272 266 261 266 267 258 263 269 267 261 270 275 277 276 275 276 276 270 266 269 270 274 277 279 278 277 275 276 276 276 274 264 257 251 254 254 252 263 269 268 270 270 272 268 265 263 263 259 256 254 246 255 258 266 284 204 219 241 244 244 248 253 256 254
247 260 265 269 273 270 277 288 271 255 262 263 264 266 261 255 259 264 255 258 269 270 270 274 274 270 262 267 271 268 274 269 272 277 273 274 273 273 269 265 269 269 264 268 269 271 272 269 267 271 273 273 274 275 266 257 254 252 258 257 258 261 265 266 270 273 271 268 264 263 260 263 261 257 249 244 255 258 278 262 236 261 264 255 250 249 250
245 252 267 284 274 259 247 241 260 258 248 264 262 263 265 270 253 243 253 261 265 271 269 266 267 275 278 267 271 269 262 276 281 270 260 268 268 263 263 267 267 266 267 269 270 269 268 271 270 269 270 270 273 274 258 253 255 260 260 261 255 259 258 260 263 267 269 271 269 266 267 259 252 246 247 243 234 251 250 260 272 265 228 214 227 232 240
247 243 205 233 263 272 247 231 247 263 263 262 270 271 272 271 269 269 269 271 269 262 259 257 258 264 263 260 261 272 264 258 259 265 263 255 261 267 267 264 261 258 260 262 266 271 273 271 272 272 271 271 277 270 256 249 250 257 262 263 259 259 264 256 245 246 255 262 261 262 264 259 250 245 250 247 245 241 242 248 256 266 273 228 147 201 238
247 238 228 234 251 265 278 278 272 270 268 266 265 268 271 275 271 266 267 263 265 275 270 268 257 250 253 263 251 259 265 266 265 264 259 260 266 266 269 268 262 252 255 264 269 269 272 271 268 268 269 271 267 258 251 246 249 252 258 258 260 263 254 253 254 256 258 251 252 258 261 264 264 261 260 257 245 251 247 244 250 248 253 238 174 239 231
252 252 250 253 255 263 273 275 269 264 263 265 269 265 253 255 265 259 256 266 267 261 260 266 271 264 251 260 260 250 257 261 263 266 269 270 269 269 268 272 278 260 254 262 264 267 266 261 257 258 264 267 242 248 251 252 255 256 257 261 259 264 270 276 274 271 272 267 271 264 260 260 255 253 258 254 250 248 242 241 240 246 246 230 214 235 232
255 241 239 246 255 258 257 263 270 270 265 263 256 264 265 251 255 266 264 260 264 261 263 260 260 265 261 251 260 263 261 264 266 267 266 265 265 266 269 270 261 270 269 267 269 270 266 264 259 259 265 270 256 253 255 258 255 261 258 251 250 258 260 265 265 269 273 276 275 268 263 259 247 241 246 251 248 243 241 241 242 239 240 236 224 225 223
271 264 255 256 252 251 257 260 264 269 266 259 258 251 249 249 249 251 257 260 255 255 267 269 259 256 261 264 260 260 260 261 264 264 263 263 264 267 267 249 245 252 257 260 263 263 263 262 263 263 270 261 254 254 256 264 262 262 259 267 269 274 259 251 264 261 262 263 268 264 255 256 252 235 239 240 242 242 235 235 236 234 237 231 226 227 206
251 269 270 254 254 256 253 256 254 263 264 254 242 241 247 244 244 251 252 255 267 269 261 261 263 260 260 261 261 258 260 265 267 265 265 266 266 263 250 240 239 245 251 250 251 256 257 258 261 274 273 260 258 255 252 254 254 258 264 263 266 263 263 262 254 266 257 249 249 247 250 247 252 243 238 238 238 231 231 232 238 240 241 237 235 217 188
228 234 245 256 243 242 256 263 248 242 257 253 244 243 243 241 239 246 251 252 255 261 260 259 262 262 252 247 250 253 256 273 274 270 262 259 261 260 236 226 238 244 251 256 257 258 257 253 253 261 259 252 248 251 251 248 241 253 250 260 261 266 262 262 243 241 248 245 245 240 244 250 249 245 241 243 243 243 242 245 244 245 255 250 242 234 200
230 243 250 258 263 257 253 258 267 267 265 271 273 254 240 247 245 243 246 246 247 249 256 263 260 254 247 249 252 252 242 247 258 266 271 270 266 263 252 245 256 262 266 263 251 254 256 256 250 247 249 246 244 242 242 243 244 249 256 250 253 261 263 264 255 250 251 256 254 256 245 242 243 243 246 253 253 251 252 255 258 256 256 254 52 44 214
226 241 249 253 255 255 252 250 252 254 258 259 259 265 264 254 251 254 249 244 246 253 259 259 259 254 252 246 249 248 244 247 254 261 266 266 266 272 259 251 260 271 274 281 273 257 259 260 246 239 236 232 227 233 232 240 248 247 253 258 262 259 260 257 261 262 261 261 259 252 252 250 257 256 249 245 244 246 246 246 241 240 236 162 131 146 137
223 231 242 248 251 250 247 241 241 244 247 248 254 257 259 258 252 252 255 258 254 249 254 261 263 258 254 248 245 247 246 245 250 258 262 266 271 271 258 254 257 263 271 277 272 273 227 232 240 230 224 218 229 248 240 229 245 242 249 250 250 256 260 263 256 254 253 248 248 252 255 257 246 245 235 236 242 245 242 241 222 171 124 114 128 136 127
225 222 234 240 246 249 248 244 239 238 245 257 255 248 248 256 261 259 255 253 251 248 247 245 245 251 258 263 256 249 246 244 248 257 264 267 264 266 264 241 249 252 254 250 263 193 209 208 220 226 240 243 245 256 252 223 231 249 255 252 251 254 251 254 260 254 248 244 233 234 234 234 238 224 202 225 232 240 244 52 94 103 95 99 111 110 112
240 231 232 241 246 250 254 258 246 231 231 238 250 258 253 244 255 263 263 257 250 237 239 248 249 252 254 255 260 261 251 238 244 252 257 260 259 247 253 245 239 244 252 272 285 274 261 246 249 246 236 245 253 247 241 231 212 248 261 267 260 255 251 247 249 250 246 235 217 225 228 233 238 230 205 181 73 80 60 68 94 104 115 121 126 120 110
237 227 223 228 237 242 245 252 253 246 237 231 238 251 258 255 249 250 258 265 259 221 224 239 239 243 249 246 253 260 262 245 234 242 248 255 264 265 270 266 247 248 257 265 267 263 262 250 249 262 263 277 221 232 190 99 181 248 251 247 246 247 245 245 249 248 230 215 212 187 218 222 197 192 107 94 115 111 129 126 122 127 129 130 116 105 99
231 230 228 223 233 239 239 243 250 251 248 242 234 241 251 255 257 259 258 256 264 239 211 222 228 240 245 249 252 259 266 266 255 250 249 253 257 257 260 272 269 250 241 243 251 269 33 74 85 247 268 241 319 99 144 137 180 219 236 238 245 246 249 240 243 243 232 217 198 198 174 155 132 127 133 136 135 135 129 121 117 114 108 102 97 95 94
235 232 231 230 232 235 235 236 245 262 263 253 242 237 244 247 246 249 259 265 268 264 243 230 222 233 248 252 258 265 268 262 257 254 238 229 236 254 265 269 274 262 245 211 42 82 105 108 108 244 347 310 322 146 157 166 206 235 245 254 264 262 262 263 251 253 248 201 168 145 136 143 145 136 136 134 128 111 99 96 90 87 82 89 95 98 93
236 231 229 230 234 234 234 232 232 238 251 261 259 245 235 238 241 250 257 261 260 264 263 256 240 232 240 247 255 261 265 262 253 253 253 244 227 228 240 268 279 94 101 95 128 110 100 91 57 58 12 338 23 102 146 275 292 268 275 357 283 268 282 284 257 241 232 201 178 142 147 134 127 128 126 112 100 98 98 96 96 100 99 101 87 74 72
231 228 228 229 232 232 229 231 237 240 247 257 256 253 245 238 235 239 247 254 261 260 256 258 249 232 228 233 238 246 256 255 239 233 242 265 238 220 224 241 274 90 86 129 130 99 82 67 62 36 25 32 49 19 19 24 358 256 276 183 195 342 234 210 228 222 144 126 118 120 107 98 95 97 103 103 100 95 89 92 86 83 72 70 67 67 67
229 228 226 224 228 229 225 225 225 229 233 243 259 265 254 245 245 241 241 245 250 257 258 255 253 248 240 227 232 238 245 249 244 221 250 275 287 284 45 23 65 72 76 73 91 75 74 63 54 43 68 58 54 40 58 72 73 78 85 89 81 89 78 82 77 78 80 76 79 82 84 85 85 80 75 79 84 87 87 88 82 66 65 65 62 68 66
233 231 227 226 229 228 227 225 227 233 247 254 262 266 261 250 248 252 247 239 241 247 251 251 250 249 246 248 251 253 255 253 237 223 226 249 266 328 77 57 63 79 83 78 85 80 83 72 80 91 84 77 73 83 89 89 86 83 81 74 70 65 67 71 68 69 59 63 71 78 86 84 81 74 73 78 78 78 77 75 72 67 62 67 63 67 66
235 235 224 219 227 233 236 230 227 230 239 242 249 257 258 254 246 243 247 242 235 246 251 252 245 246 244 240 240 259 270 273 255 182 125 78 73 91 92 92 93 97 105 89 82 82 94 97 88 84 81 77 72 83 79 74 70 76 71 72 65 68 65 60 67 69 69 67 71 75 71 70 76 84 80 77 71 70 68 66 69 67 59 63 65 64 62
231 233 235 228 227 234 235 229 222 228 228 230 234 244 252 257 256 250 246 241 237 241 248 249 244 244 248 245 235 233 244 251 279 247 97 81 80 101 113 82 115 115 100 89 80 66 63 74 76 73 69 71 70 75 70 74 74 77 78 76 76 76 79 86 81 84 84 80 75 71 76 68 65 61 65 70 71 69 72 74 73 70 74 67 61 62 64
234 232 238 238 235 232 229 226 225 229 235 235 235 243 248 253 261 267 260 243 242 245 248 249 248 249 248 168 174 119 13 283 224 211 91 85 107 106 105 112 105 97 84 88 85 78 57 63 66 69 68 69 79 77 81 81 81 83 77 80 80 73 72 73 69 69 70 69 71 76 78 74 70 62 66 65 67 67 70 66 65 64 67 76 77 72 69
237 232 232 236 233 226 220 220 222 228 232 231 235 240 243 246 257 256 250 239 229 234 242 247 241 219 115 135 94 68 64 80 71 81 98 94 99 101 101 109 97 87 87 95 87 82 62 59 57 58 69 78 74 81 85 89 88 87 91 86 81 77 68 74 75 73 71 73 77 70 69 68 71 70 71 73 68 66 64 69 70 69 67 72 69 63 58
221 220 229 231 231 229 216 213 222 223 225 227 232 239 236 226 237 249 253 239 211 220 233 235 190 107 121 108 106 104 90 80 82 97 104 103 96 90 90 93 85 79 78 77 75 73 67 65 68 70 71 78 83 81 84 86 85 83 77 78 77 78 74 72 69 63 61 66 69 71 73 74 72 73 72 73 72 70 70 67 71 68 60 58 60 57 57
233 232 235 233 232 226 226 226 230 232 234 233 236 236 230 230 238 247 253 233 219 224 226 227 219 168 133 135 134 109 94 97 107 97 101 107 109 108 92 90 87 77 77 77 74 70 71 73 71 72 77 74 77 82 78 76 75 76 72 72 70 65 64 66 70 73 73 71 78 76 73 74 79 76 70 66 66 64 56 56 59 64 63 63 60 58 60